Date,TemperatureHighF,TemperatureAvgF,TemperatureLowF,DewpointHighF,DewpointAvgF,DewpointLowF,HumidityHigh,HumidityAvg,HumidityLow,PressureMaxIn,PressureMinIn,WindSpeedMaxMPH,WindSpeedAvgMPH,GustSpeedMaxMPH,PrecipitationSumIn
2013-2-1,33,30,24,19,13,6,65,50,40,30.21,29.73,9,4,21,0.00
2013-2-2,30,26,20,28,13,6,99,59,39,30.39,30.18,8,2,17,0.00
2013-2-3,32,28,24,31,28,24,99,99,98,30.18,29.78,8,2,16,0.04
2013-2-4,32,27,24,27,15,8,99,64,38,30.08,29.81,9,4,18,0.00
2013-2-5,30,26,24,30,20,10,99,79,55,30.17,30.04,7,1,15,0.00
2013-2-6,40,34,30,35,28,13,99,81,48,30.40,30.02,8,1,14,0.05
2013-2-7,30,26,23,24,14,8,90,61,45,30.65,30.40,8,2,13,0.00
2013-2-8,34,32,28,34,30,25,99,93,86,30.61,29.67,11,4,19,0.05
2013-2-10,34,29,22,27,20,16,93,70,52,30.52,30.46,6,2,11,0.05
2013-2-11,47,38,27,46,38,27,99,99,93,30.50,29.73,11,3,19,0.34
2013-2-12,46,41,35,45,34,28,99,80,51,29.88,29.73,9,3,21,0.01
2013-2-13,41,35,31,30,26,22,91,72,49,30.00,29.81,4,1,9,0.00
2013-2-14,41,35,32,38,30,20,99,83,48,30.16,29.81,4,1,8,0.25
2013-2-15,48,39,32,41,38,31,99,95,67,30.18,30.07,7,2,11,0.00
2013-2-16,38,36,34,38,35,34,99,99,99,30.08,29.74,8,2,16,0.01
2013-2-17,34,25,21,34,20,0,99,83,36,29.75,29.38,16,8,30,0.15
2013-2-18,32,24,17,6,1,-7,53,37,20,30.29,29.75,13,6,32,0.02
2013-2-19,46,38,25,46,27,1,99,68,34,30.30,29.73,12,3,22,0.61
2013-2-20,44,35,26,44,24,8,99,67,40,29.91,29.67,9,4,27,0.01
2013-2-21,33,29,25,28,16,11,83,58,41,30.21,29.90,12,5,25,0.01
2013-2-22,36,34,31,32,28,25,95,79,69,30.49,30.21,13,3,21,0.00
2013-2-23,39,36,32,39,33,29,99,90,75,30.47,29.99,6,2,11,0.20
2013-2-24,44,38,32,43,38,32,99,99,99,29.98,29.67,10,4,16,0.78
2013-2-25,40,35,30,35,30,25,99,84,57,30.37,29.95,8,2,16,0.04
2013-2-26,44,36,30,38,30,22,99,79,44,30.47,30.26,5,1,10,0.00
2013-2-27,45,43,39,45,42,37,99,99,91,30.26,29.68,14,6,24,0.59
2013-2-28,41,38,36,41,38,36,99,99,99,29.77,29.62,8,1,17,0.01